COSMOS 1954

Satellite information

Favourite Embed

Satellite Type and Status

PAYLOADIN ORBIT

Key statistics

Satellite COSMOS 1954 at a glance.

Uptime

13529

Days in orbit

Revolutions

≈ 14.3

Per day

Orbit

LEO

Low Earth Orbit

Inclination

74.0

Latest

Satellite identification and parameters

Extended collection of information and parameters for COSMOS 1954.

Object identification

Identified? True

Debris? False

Object name: COSMOS 1954

International designator: 1988-053A

Object number (NORAD): 19256

Object ID (CCSDS): 19256

Country: COMMONWEALTH OF INDEPENDENT STATES (CIS)

Current information (Y/N): Y

RCS size: LARGE

Orbital parameters

Period: 100.36 minutes

Inclination: 74.0486 deg

SMA: 7153.738 km

Apoapsis: 786.436 km

Periapsis: 764.771 km

RAAN: 317.5477 deg

Eccentricy: 0.0015142

Argument of periapsis: 54.9119 deg

Mean anomaly: 305.3451 deg

Mean motion: 14.34839014 rev/day

Mean motion (dot): 0.00000105 rev/day2

B* drag term: 0.000046212 1/REarth

Two-line elements (TLE)

Creation date: July 5, 2025, 10:46 p.m.

Reference frame: TEME

Reference center: EARTH

Epoch: July 5, 2025, 6:04 p.m. UTC

TLE line 0: 0 COSMOS 1954

TLE line 1: 1 19256U 88053A 25186.75321797 .00000105 00000-0 46212-4 0 9995

TLE line 2: 2 19256 74.0486 317.5477 0015142 54.9119 305.3451 14.34839014937513

Live tracking on map

Real-time ground track for satellite COSMOS 1954.

In-orbit conjunctions

A list of the most updated potential collisions computed for object COSMOS 1954.

Target Orbit TCA Probability of collision Miss distance Type
NOAA 16 DEB SSO 2025-04-21 08:33:30 0.000167708 570.0 (m) DEBRIS
CZ-6A DEB LEO 2025-04-18 07:51:01 0.0004400544 163.0 (m) DEBRIS
CZ-6A DEB SSO 2025-02-02 03:59:53 0.0002329206 668.0 (m) DEBRIS
CZ-6A DEB LEO 2025-01-06 23:34:21 0.0004437588 713.0 (m) DEBRIS
CZ-6A DEB SSO 2024-10-03 01:37:56 0.0001115407 300.0 (m) DEBRIS

Associated space launch

Military communications satellite

COSMOS 1954 was lifted into orbit during the mission ‘Kosmos-3M | Strela-2M 45’, on board a Kosmos-3M space rocket.

The launch took place on June 21, 1988, 4:26 p.m. from 133/3 (133L).

For more information about the launch, click the button.

Launch to space Kosmos-3M | Strela-2M 45
Kosmos-3M | Strela-2M 45

Agency: N/A

Status: Launch Successful

Launch date: June 21, 1988, 4:26 p.m. UTC

Rocket: Kosmos-3M

Launch pad: 133/3 (133L)

Location: Plesetsk Cosmodrome, Russian Federation

...

Latest news about this satellite

There are no fresh news available about this satellite. Check back as we update our databases every day.


Newsletter sign-up

Weekly statistics, charts and insights to help you stay on top of the space industry.